Retour au catalogue

KUIPER-00320

ActifCommunicationsLEO
NORAD 68601·PAYLOAD·🇺🇸 United States

Lancé Apr 4, 2026 depuis Cape Canaveral Space Force Station

Loading…

Prochains Passages (prochaines 24 heures)

TLE

FraisSource: CelesTrak SupGP

Époque: Sep 14, 2026, 23:28 UTC

1 68601C 26072AE  26257.97787037  .00003057  00000+0  40022-3 0  2570
2 68601  51.9008 143.6165 0000859  98.1707 207.6142 14.79928682    15

Suivez KUIPER-00320 en temps réel avec AllMySat

Download on the App Store